Weather History for Crossville, TN

Change the Weather History Date:

Wednesday, September 25, 2013

  Actual Average Record
Temperature  
Mean Temperature 66 °F 64 °F  
Max Temperature 68 °F 74 °F 86 °F (1961)
Min Temperature 63 °F 53 °F 36 °F (1965)
Degree Days  
Heating Degree Days 0    
Month to date heating degree days 13  
Since 1 July heating degree days 13  
Cooling Degree Days 1    
Month to date cooling degree days 134  
Year to date cooling degree days 891  
Growing Degree Days 16 (Base 50)    
Moisture  
Dew Point 62 °F    
Average Humidity 87    
Maximum Humidity 93    
Minimum Humidity 81    
Precipitation  
Precipitation 0.59 in 0.13 in 0.88 in (1977)
Month to date precipitation 3.04 3.22  
Year to date precipitation 49.65 41.34  
Sea Level Pressure  
Sea Level Pressure 29.89 in    
Wind  
Wind Speed 2 mph (ESE)    
Max Wind Speed 8 mph    
Max Gust Speed 13 mph    
Visibility 7 miles    
Events Rain    
T = Trace of Precipitation, MM = Missing Value Source: NWS Daily Summary

Daily Weather History Graph

Daily Weather History Graph

Search for Another Location

Airport:

Trip Planner

Search our weather history database for the weather conditions in past years. The results will help you decide how hot, cold, wet, or windy it might be!

Date:

Astronomy

Sep. 25, 2013 Rise Set
Actual Time 6:30 AM CDT 6:32 PM CDT
Civil Twilight 6:05 AM CDT 6:57 PM CDT
Nautical Twilight 5:35 AM CDT 7:27 PM CDT
Astronomical Twilight 5:05 AM CDT 7:57 PM CDT
Moon 10:48 PM CDT (9/25) 12:26 PM CDT (9/25)
Length of Visible Light 12h 52m
Length of Day
12h 01m
Waning Gibbous, 64% of the Moon is Illuminated
Sep 25
Waning Gibbous
Sep 26
Last Quarter
Oct 4
New
Oct 11
First Quarter
Oct 18
Full

Hourly Weather History & Observations

Time (CDT) Temp. Dew Point Humidity Pressure Visibility Wind Dir Wind Speed Gust Speed Precip Events Conditions
12:53 AM 66.9 °F 62.1 °F 84% 29.87 in 7.0 mi Calm Calm - N/A   Overcast
1:15 AM 64.4 °F 62.6 °F 94% 29.92 in 7.0 mi Calm Calm - N/A   Overcast
1:53 AM 64.9 °F 62.1 °F 90% 29.87 in 6.0 mi Calm Calm - 0.00 in Rain Light Rain
2:16 AM 64.4 °F 62.6 °F 94% 29.91 in 2.5 mi Calm Calm - 0.05 in Rain Rain
2:22 AM 64.4 °F 62.6 °F 94% 29.90 in 3.0 mi Calm Calm - 0.06 in Rain Light Rain
2:53 AM 64.9 °F 62.1 °F 90% 29.86 in 3.0 mi Calm Calm - 0.08 in   Overcast
3:08 AM 64.4 °F 62.6 °F 94% 29.90 in 1.8 mi Calm Calm - 0.02 in Rain Rain
3:18 AM 64.4 °F 62.6 °F 94% 29.89 in 2.0 mi Calm Calm - 0.03 in Rain Light Rain
3:31 AM 64.4 °F 62.6 °F 94% 29.90 in 3.0 mi Calm Calm - 0.04 in Rain Light Rain
3:39 AM 64.4 °F 62.6 °F 94% 29.90 in 2.0 mi Calm Calm - 0.08 in Rain Rain
3:53 AM 64.9 °F 62.1 °F 90% 29.85 in 1.8 mi Calm Calm - 0.15 in Rain Rain
4:02 AM 64.4 °F 62.6 °F 94% 29.90 in 2.0 mi Calm Calm - 0.03 in Rain Rain
4:14 AM 64.4 °F 62.6 °F 94% 29.90 in 3.0 mi Calm Calm - 0.06 in Rain Light Rain
4:26 AM 64.4 °F 62.6 °F 94% 29.90 in 1.8 mi Calm Calm - 0.11 in Rain Heavy Rain
4:53 AM 64.9 °F 62.1 °F 90% 29.84 in 2.0 mi Variable 3.5 mph - 0.30 in Rain Light Rain
5:00 AM 64.4 °F 62.6 °F 94% 29.89 in 3.0 mi Calm Calm - 0.01 in Rain Light Rain
5:17 AM 64.4 °F 62.6 °F 94% 29.89 in 4.0 mi Calm Calm - 0.01 in   Overcast
5:53 AM 64.9 °F 62.1 °F 90% 29.85 in 8.0 mi Calm Calm - 0.02 in   Overcast
6:03 AM 64.4 °F 62.6 °F 94% 29.90 in 9.0 mi Calm Calm - N/A   Overcast
6:11 AM 64.4 °F 62.6 °F 94% 29.90 in 9.0 mi Calm Calm - N/A   Overcast
6:38 AM 64.4 °F 62.6 °F 94% 29.90 in 5.0 mi Calm Calm - N/A   Overcast
6:53 AM 64.9 °F 62.1 °F 90% 29.86 in 3.0 mi Calm Calm - N/A   Overcast
7:01 AM 64.4 °F 62.6 °F 94% 29.91 in 2.5 mi Calm Calm - N/A   Overcast
7:32 AM 64.4 °F 62.6 °F 94% 29.91 in 1.5 mi Calm Calm - N/A   Overcast
7:53 AM 64.0 °F 62.1 °F 93% 29.87 in 1.0 mi East 3.5 mph - 0.01 in Rain Light Rain
8:45 AM 64.4 °F 62.6 °F 94% 29.92 in 2.0 mi SE 3.5 mph - 0.01 in   Overcast
8:53 AM 64.9 °F 62.1 °F 90% 29.87 in 1.8 mi Variable 3.5 mph - 0.01 in   Overcast
9:30 AM 66.2 °F 62.6 °F 88% 29.92 in 2.5 mi SE 3.5 mph - 0.01 in   Overcast
9:53 AM 64.9 °F 62.1 °F 90% 29.88 in 4.0 mi SE 6.9 mph - 0.02 in   Overcast
10:01 AM 66.2 °F 62.6 °F 88% 29.92 in 6.0 mi SE 4.6 mph - N/A   Overcast
10:24 AM 66.2 °F 62.6 °F 88% 29.93 in 10.0 mi Variable 3.5 mph - N/A   Overcast
10:53 AM 64.9 °F 61.0 °F 87% 29.88 in 10.0 mi SE 4.6 mph - 0.00 in Rain Light Rain
11:53 AM 66.0 °F 61.0 °F 84% 29.88 in 10.0 mi Variable 3.5 mph - 0.00 in   Overcast
12:53 PM 66.0 °F 61.0 °F 84% 29.86 in 6.0 mi Calm Calm - N/A   Haze
1:53 PM 68.0 °F 62.1 °F 81% 29.84 in 10.0 mi SSE 3.5 mph - N/A   Overcast
2:44 PM 68.0 °F 62.6 °F 83% 29.89 in 10.0 mi East 4.6 mph - N/A   Overcast
2:53 PM 68.0 °F 62.1 °F 81% 29.84 in 10.0 mi SSE 4.6 mph - N/A   Overcast
3:00 PM 68.0 °F 62.6 °F 83% 29.88 in 10.0 mi Calm Calm - N/A   Overcast
3:10 PM 68.0 °F 62.6 °F 83% 29.88 in 10.0 mi SE 4.6 mph - N/A   Overcast
3:53 PM 66.9 °F 62.1 °F 84% 29.85 in 10.0 mi Calm Calm - N/A   Overcast
4:17 PM 68.0 °F 62.6 °F 83% 29.89 in 10.0 mi East 3.5 mph - N/A   Overcast
4:53 PM 68.0 °F 62.1 °F 81% 29.85 in 10.0 mi ENE 4.6 mph - N/A   Overcast
5:00 PM 68.0 °F 62.6 °F 83% 29.90 in 10.0 mi East 3.5 mph - N/A   Overcast
5:32 PM 66.2 °F 62.6 °F 88% 29.90 in 10.0 mi East 3.5 mph - N/A   Overcast
5:53 PM 66.9 °F 62.1 °F 84% 29.86 in 10.0 mi Calm Calm - N/A   Overcast
6:20 PM 66.2 °F 62.6 °F 88% 29.90 in 10.0 mi Calm Calm - N/A   Overcast
6:31 PM 66.2 °F 62.6 °F 88% 29.91 in 10.0 mi Calm Calm - N/A   Overcast
6:53 PM 66.0 °F 62.1 °F 87% 29.86 in 10.0 mi Calm Calm - N/A   Overcast
7:24 PM 66.2 °F 62.6 °F 88% 29.91 in 10.0 mi Calm Calm - N/A   Overcast
7:44 PM 66.2 °F 62.6 °F 88% 29.92 in 10.0 mi Calm Calm - N/A   Overcast
7:53 PM 66.0 °F 62.1 °F 87% 29.88 in 10.0 mi Calm Calm - N/A   Overcast
8:44 PM 66.2 °F 62.6 °F 88% 29.92 in 10.0 mi Calm Calm - N/A   Overcast
8:53 PM 64.9 °F 62.1 °F 90% 29.87 in 10.0 mi South 3.5 mph - N/A   Overcast
9:53 PM 64.9 °F 62.1 °F 90% 29.88 in 9.0 mi NE 3.5 mph - N/A   Mostly Cloudy
10:04 PM 64.4 °F 62.6 °F 94% 29.93 in 7.0 mi Calm Calm - N/A   Mostly Cloudy
10:15 PM 64.4 °F 62.6 °F 94% 29.93 in 6.0 mi Calm Calm - N/A   Mostly Cloudy
10:53 PM 64.9 °F 62.1 °F 90% 29.89 in 8.0 mi East 3.5 mph - N/A   Overcast
11:11 PM 64.4 °F 62.6 °F 94% 29.94 in 9.0 mi ESE 4.6 mph - N/A   Overcast
11:33 PM 64.4 °F 62.6 °F 94% 29.94 in 10.0 mi Calm Calm - N/A   Overcast
11:53 PM 64.9 °F 62.1 °F 90% 29.89 in 9.0 mi Calm Calm - N/A   Overcast